GFSMW_sfc_temp_000.txt.gz
Temp
95 95 95 95 90 88 86 85 83 83 80 79 77 75 74 75 80 82 83 81 79 80 77 79 76 76 75 74 75 75 74 74 76 73 73 73 76 77 78 76 78 78 78
94 92 93 93 90 86 85 83 83 82 80 79 77 77 78 76 76 79 78 78 78 78 78 76 78 76 73 75 75 74 73 74 74 71 71 67 72 78 79 76 78 76 76
92 93 89 91 91 83 85 84 82 82 81 79 78 77 76 73 70 70 73 76 78 77 77 77 75 75 76 73 74 74 72 71 73 73 70 66 67 71 74 76 75 75 75
95 87 85 87 88 85 83 82 83 82 81 81 76 76 72 68 69 71 73 72 75 78 77 76 76 75 76 73 76 74 71 71 70 72 73 72 74 68 67 73 74 75 74
93 89 89 88 89 91 86 83 82 81 81 81 78 75 72 71 72 71 73 74 74 77 77 76 76 75 75 75 75 75 72 71 70 70 71 71 72 73 71 68 70 72 75
86 87 87 86 76 84 88 85 82 80 82 81 77 75 74 72 71 72 73 72 73 74 75 76 75 75 75 74 73 75 73 72 71 70 69 69 69 71 70 68 70 69 73
82 80 81 76 67 73 87 88 81 80 81 80 79 76 73 73 72 71 71 72 72 73 73 74 74 74 75 75 74 73 73 72 70 70 69 69 73 74 74 73 70 69 72
82 85 84 82 84 86 86 86 81 79 79 80 78 76 74 72 71 72 73 73 71 73 75 74 74 75 75 75 74 74 71 73 71 71 71 71 75 77 76 74 71 67 70
83 81 80 74 85 85 85 84 82 80 79 78 79 76 74 71 70 73 74 74 74 74 76 75 74 74 74 75 72 74 72 70 70 71 72 69 70 75 77 77 76 70 65
79 80 82 85 87 86 84 84 83 80 80 78 78 76 74 72 71 72 71 73 71 74 76 76 75 73 73 73 73 71 73 71 70 71 72 71 73 74 73 77 77 76 71
84 82 86 87 89 87 85 83 83 81 80 77 77 75 74 73 73 70 70 71 73 71 69 71 74 74 72 73 71 72 72 71 71 72 71 71 72 73 71 75 76 75 74
82 86 87 87 88 87 85 84 79 82 80 80 79 75 75 76 74 73 73 72 73 74 72 71 70 72 72 71 71 71 72 71 70 70 70 69 71 72 73 75 74 73 74
84 83 82 83 86 86 84 82 81 84 83 81 79 79 75 76 75 74 74 73 73 73 73 73 74 71 70 68 67 66 65 66 67 65 65 65 66 66 67 70 70 71 72
81 78 78 81 86 84 80 82 83 86 84 83 80 79 75 74 76 76 74 74 74 73 71 69 69 70 71 69 67 65 64 64 63 62 62 62 62 62 64 66 67 68 69
82 81 81 81 83 84 82 82 85 85 83 82 80 78 76 80 77 76 75 74 74 73 71 70 70 70 69 67 65 65 64 62 61 60 60 60 62 62 62 62 61 62 65
78 81 81 82 82 83 84 84 82 82 84 83 80 79 80 76 75 76 75 75 74 72 71 71 71 70 70 62 63 65 64 62 60 58 58 58 60 61 62 63 63 61 59
79 78 80 80 80 81 81 81 80 83 80 77 82 77 79 76 76 76 76 74 71 70 69 65 65 64 63 58 61 64 66 64 63 61 61 61 64 63 64 63 62 60 60
78 79 79 77 75 76 75 74 76 76 77 77 76 76 77 77 73 73 70 69 70 69 67 66 65 63 58 56 57 62 68 65 62 62 62 60 58 59 63 63 60 57 56
75 73 73 71 67 66 67 69 70 73 76 77 76 73 71 71 68 69 68 67 67 65 64 64 62 60 56 53 55 64 64 60 58 57 56 58 57 56 61 62 59 57 56
71 67 65 64 62 61 63 62 65 65 66 65 68 65 66 62 60 62 61 62 64 63 61 59 58 56 55 50 51 61 64 60 59 56 55 54 53 52 55 61 60 56 56
65 64 62 59 58 58 57 54 55 54 56 58 60 59 57 56 56 55 55 56 56 55 54 54 53 54 53 50 49 51 62 61 58 56 54 53 50 49 49 52 55 53 56
64 62 58 56 56 56 53 52 51 53 55 55 55 54 53 54 53 52 51 51 50 48 47 47 47 48 49 48 47 48 49 52 52 50 50 49 47 46 47 51 49 51 53
60 59 57 55 55 54 53 51 51 52 52 51 51 51 52 53 53 51 50 48 49 47 46 46 46 46 48 48 47 47 48 49 48 48 48 47 46 47 48 50 51 53 53
57 57 56 54 53 54 53 53 53 53 53 51 51 52 52 53 54 54 54 50 50 48 47 46 46 46 47 47 49 49 49 50 49 51 51 51 51 52 55 56 57 56 55
57 56 55 56 55 55 55 56 56 55 54 53 53 52 53 52 51 52 52 51 49 50 48 48 49 48 46 46 44 46 52 54 50 51 54 54 55 55 54 54 55 54 54
57 56 56 56 57 58 57 59 61 61 59 57 57 54 54 54 54 53 49 46 46 44 42 43 51 51 44 43 42 43 45 48 47 55 56 55 55 53 53 53 54 54 54

GFSMW_sfc_temp_003.txt.gz
Temp
84 85 86 85 81 80 77 76 76 75 73 73 70 70 69 70 69 70 75 73 72 73 71 70 71 70 70 70 70 70 69 70 72 70 69 71 73 73 73 72 73 74 75
83 82 84 83 80 77 77 75 75 74 74 73 71 70 70 70 70 70 72 73 74 73 70 70 70 70 70 69 70 70 68 70 70 66 67 64 67 72 72 72 72 72 73
82 78 70 73 78 77 77 75 74 74 73 74 71 70 68 67 68 68 69 72 73 72 70 70 70 70 70 69 70 70 68 67 70 71 67 63 62 67 70 70 71 72 70
77 72 67 70 73 77 78 76 75 74 74 74 71 69 67 65 66 67 67 69 72 72 72 70 70 70 69 69 70 70 68 68 67 68 71 69 68 64 63 68 70 71 71
79 75 71 74 77 79 76 73 75 73 73 73 72 69 67 67 67 67 67 67 68 70 72 71 70 70 69 70 69 68 67 67 67 66 67 68 68 68 65 63 65 69 70
81 81 74 75 72 76 73 72 73 72 73 71 71 70 68 67 66 66 66 66 67 68 70 71 70 69 70 69 70 69 68 68 67 67 68 66 66 65 65 63 64 65 68
77 71 71 74 71 71 76 76 72 71 72 72 70 70 67 66 66 66 66 66 66 67 68 69 69 69 70 69 70 69 68 68 68 68 67 67 67 68 67 66 65 65 67
73 73 73 73 71 75 73 74 71 70 71 72 69 69 68 66 66 67 67 66 66 67 69 69 69 70 70 69 69 69 68 68 68 68 68 68 68 68 69 71 66 63 64
75 72 72 73 74 74 72 73 71 71 72 71 69 68 67 67 67 68 68 67 67 69 70 70 69 70 69 69 68 68 69 69 68 68 69 68 67 67 69 68 69 64 61
72 71 69 73 74 73 73 73 73 71 71 71 70 69 68 67 67 67 67 67 68 68 69 70 69 69 69 69 69 68 69 68 67 67 67 66 65 66 68 67 66 69 64
72 71 73 74 75 74 74 73 72 72 71 70 70 68 68 68 68 67 68 68 68 68 68 68 68 68 68 69 68 68 68 68 67 68 68 68 69 68 68 68 68 66 68
72 72 75 76 75 74 74 73 73 72 72 71 70 69 69 69 68 68 68 69 69 68 67 68 68 67 67 67 68 68 68 67 67 67 67 67 70 66 66 67 67 69 70
70 72 73 78 76 77 74 72 72 72 72 72 71 72 72 68 67 68 68 68 68 68 68 68 67 67 66 66 65 65 64 64 63 63 63 64 65 64 65 65 66 66 66
72 71 73 74 78 77 77 73 73 75 73 72 71 71 73 73 70 68 68 68 68 67 66 67 67 67 66 65 65 64 63 62 61 61 61 61 61 62 63 62 61 63 65
72 71 70 74 75 73 73 74 74 73 74 72 72 70 70 72 71 69 69 69 68 66 66 66 65 65 66 65 64 63 61 60 59 59 59 59 62 63 62 59 58 61 62
74 74 73 73 70 74 72 73 76 75 76 75 71 73 70 71 69 68 67 67 66 66 66 64 61 60 63 62 63 63 61 60 58 56 55 56 59 61 60 60 61 61 59
71 71 68 66 65 64 65 65 67 68 71 74 74 74 72 70 70 67 66 64 63 64 61 60 57 55 55 58 61 63 61 61 59 58 59 59 60 59 58 58 59 59 60
68 64 64 61 60 61 61 63 66 67 68 70 71 70 71 70 67 66 64 63 62 61 61 59 55 53 54 55 59 61 59 56 55 57 58 56 56 58 59 58 58 57 57
63 60 61 59 60 60 61 62 63 64 65 65 67 66 67 66 65 63 61 60 58 55 53 53 55 55 52 52 57 59 57 55 52 53 54 55 56 58 58 59 56 56 55
60 59 61 60 58 57 57 55 53 54 55 61 62 62 63 61 60 60 58 57 55 53 52 50 49 52 51 50 52 59 59 55 55 54 54 54 53 52 54 59 57 55 54
61 60 58 56 55 54 54 51 52 51 53 56 57 56 56 55 54 52 52 51 52 50 49 49 50 50 50 49 50 53 58 55 53 52 51 50 51 49 49 50 48 47 51
60 58 55 54 54 54 52 50 49 51 52 53 53 53 53 53 52 50 50 50 49 48 48 48 47 48 48 49 48 48 50 53 50 48 49 49 47 46 47 50 49 50 53
58 57 54 53 53 53 52 50 50 52 52 51 51 51 51 51 51 50 49 48 48 47 46 46 46 46 48 48 48 48 49 50 48 48 49 49 46 47 49 51 53 53 53
56 56 54 52 52 53 53 52 52 53 52 51 51 52 51 51 51 52 51 49 48 47 46 46 45 46 46 46 48 48 49 51 50 52 50 50 51 50 53 51 50 50 50
56 57 54 53 52 54 53 54 55 54 51 51 50 50 50 49 47 48 49 48 45 48 47 46 48 46 45 45 44 45 48 45 45 46 45 44 44 44 45 45 46 46 47
56 56 56 55 55 56 55 56 57 55 52 50 50 51 51 50 47 46 45 46 45 43 42 44 46 41 42 42 42 42 43 45 46 45 44 43 43 44 43 43 43 44 47

GFSMW_sfc_temp_006.txt.gz
Temp
71 72 79 81 80 77 77 75 73 73 71 70 69 68 68 69 69 69 71 71 71 72 71 69 69 68 69 69 70 68 67 67 69 67 68 69 71 71 71 71 73 73 73
73 68 67 69 71 77 77 73 72 72 71 71 70 69 68 68 68 67 70 73 72 71 70 69 68 68 68 68 69 68 67 67 68 65 65 64 66 70 71 71 71 72 72
68 67 69 71 73 68 72 73 72 71 72 71 70 68 68 67 66 66 67 69 71 71 70 69 68 68 68 68 69 69 68 66 67 68 66 61 61 65 68 70 70 71 70
73 69 68 68 67 70 72 73 71 72 72 71 68 68 66 65 65 65 66 67 70 70 70 69 68 68 68 68 68 69 68 67 66 66 69 67 66 63 62 66 69 70 70
71 70 68 69 71 68 71 72 72 72 71 70 69 66 65 65 65 65 65 66 66 68 70 69 68 68 68 68 68 68 67 67 66 65 65 66 66 65 63 62 65 68 69
72 70 68 70 70 74 71 72 72 70 69 69 68 67 66 64 64 64 64 65 65 66 68 69 68 69 68 68 69 68 66 67 66 65 66 65 64 64 64 63 64 65 67
71 68 67 69 69 68 69 73 70 68 68 68 68 67 65 65 64 65 65 65 64 65 67 68 67 67 68 68 68 68 67 66 66 66 65 66 66 66 65 64 64 63 66
70 69 68 70 71 72 72 71 69 67 67 67 67 66 66 65 65 66 66 65 65 66 67 67 67 68 69 68 68 69 68 68 67 67 66 66 67 67 67 65 64 61 63
68 68 70 71 69 70 70 70 68 67 67 67 66 66 66 65 65 65 66 65 66 67 68 68 68 68 68 68 68 67 67 67 66 66 67 67 67 67 67 67 66 64 61
67 68 70 70 70 70 69 69 68 67 67 68 67 66 65 65 65 65 66 66 67 67 67 67 67 67 68 68 66 66 67 66 66 67 66 66 66 66 67 67 66 66 64
68 68 69 70 71 70 70 69 68 68 67 67 67 66 66 66 66 65 66 66 66 66 66 67 66 66 67 67 66 66 67 66 66 66 66 65 65 65 66 66 66 66 65
68 66 70 71 70 70 69 69 69 69 68 68 67 66 66 66 65 66 66 66 65 66 67 67 66 65 65 66 66 67 67 66 66 66 66 66 67 65 65 65 65 66 66
68 68 69 70 69 69 70 69 68 69 69 69 67 66 66 66 66 66 66 65 65 65 66 66 65 65 65 64 64 63 63 63 63 63 63 64 65 64 63 63 63 64 65
69 66 66 67 70 71 71 70 69 70 70 69 68 67 66 66 66 66 66 65 65 65 65 64 64 65 65 65 65 63 62 61 61 61 61 61 62 62 61 61 61 62 63
66 68 67 69 69 72 70 70 70 69 69 69 68 67 67 67 67 66 66 65 65 64 64 63 63 63 64 64 62 61 61 60 58 58 60 60 62 62 61 60 60 61 62
65 70 66 65 63 64 64 66 65 66 68 73 70 72 70 69 66 65 64 64 63 61 59 57 57 60 63 61 61 61 58 57 56 55 55 57 59 59 59 60 60 60 61
65 64 61 61 59 59 60 61 63 65 66 71 69 71 71 68 65 64 62 60 59 57 55 53 53 53 57 59 60 61 59 59 58 58 57 58 59 57 54 57 58 58 59
63 60 59 58 57 57 58 60 63 63 65 66 67 67 66 66 64 62 59 57 57 58 57 55 52 51 53 57 57 58 55 53 53 55 57 57 56 57 57 56 56 57 57
59 58 57 56 56 57 57 56 57 59 61 63 66 67 65 64 61 58 56 53 52 50 48 51 54 53 54 54 55 56 56 53 50 51 53 53 54 56 57 57 56 55 56
57 56 57 57 53 55 56 55 54 54 55 57 60 66 65 63 58 56 54 53 51 50 50 50 52 52 52 51 53 57 57 51 52 53 52 54 53 52 53 54 52 51 53
56 57 56 54 53 54 54 52 51 51 53 56 56 56 56 55 54 52 52 51 49 48 48 49 50 51 51 51 51 53 56 53 51 50 49 49 50 48 49 50 53 51 53
56 56 53 52 53 53 52 50 50 52 53 52 52 52 52 53 52 50 50 50 50 49 48 48 48 48 49 49 48 49 51 53 51 49 49 49 47 47 48 51 49 50 53
55 54 53 52 52 52 52 50 50 52 52 52 51 51 51 51 50 49 49 48 49 48 47 47 46 47 48 48 48 48 50 51 49 49 50 49 47 48 49 50 51 52 52
54 54 52 51 50 52 52 52 52 53 52 50 49 49 49 48 49 49 49 48 48 46 47 46 46 45 46 47 48 48 49 51 50 51 50 51 50 50 49 47 45 45 44
54 54 52 51 51 52 52 53 53 52 50 49 48 47 46 47 45 46 45 45 42 46 47 45 47 47 45 45 44 46 49 46 45 44 42 42 42 42 42 42 42 42 42
55 53 53 53 53 53 54 54 55 53 50 49 50 49 48 47 46 46 43 46 44 44 43 43 42 40 42 41 41 42 43 44 45 43 40 39 39 39 39 40 40 39 43

GFSMW_sfc_temp_009.txt.gz
Temp
69 70 73 74 72 73 72 71 72 72 71 69 68 67 67 67 68 68 70 69 70 71 70 69 68 68 68 68 68 67 66 67 68 65 66 67 69 70 70 71 73 72 73
68 70 71 71 68 69 71 68 66 67 70 69 68 68 67 67 67 67 68 70 70 70 70 68 68 68 68 67 68 67 66 66 67 64 63 62 65 67 69 70 71 71 72
66 67 69 68 70 68 67 64 65 67 70 70 68 67 67 66 65 65 66 68 69 69 69 69 68 68 68 67 67 68 66 65 66 67 64 60 60 63 67 69 70 70 70
69 67 68 66 67 68 67 66 66 65 70 70 68 67 65 64 64 64 65 66 68 68 69 68 68 67 67 67 68 68 67 65 64 66 66 66 64 61 61 65 68 69 70
69 66 68 67 69 70 70 69 68 67 70 70 68 66 65 64 65 64 64 65 66 67 68 68 67 67 67 67 67 67 66 66 65 66 64 64 65 64 62 60 63 66 68
70 69 67 67 67 68 68 70 70 69 69 68 67 66 64 63 63 63 63 64 64 65 66 68 67 67 67 67 67 67 67 66 66 65 64 65 64 63 62 61 62 62 67
68 66 66 65 66 67 69 70 69 67 67 67 66 66 64 64 63 64 63 63 63 64 65 66 66 66 67 67 67 66 66 66 65 65 64 65 65 65 64 63 62 61 64
68 66 66 66 68 68 69 69 67 66 66 66 66 65 65 64 63 64 64 63 63 64 66 66 66 67 67 67 67 67 66 66 66 65 65 65 66 66 66 64 62 61 61
65 65 66 68 69 69 69 68 67 66 66 66 65 64 64 64 63 64 64 64 65 66 67 67 66 66 67 67 66 67 69 67 65 65 65 65 66 67 67 66 65 63 60
68 67 67 67 68 69 68 68 67 66 66 66 65 65 64 64 64 64 64 64 65 65 66 66 66 66 66 66 66 67 67 67 66 65 65 66 66 66 66 66 66 66 64
67 67 68 68 68 68 68 67 66 66 66 66 65 65 65 64 64 64 64 64 65 65 66 65 65 65 65 66 65 64 66 66 65 65 65 65 66 65 66 66 65 65 65
68 67 68 70 68 67 67 67 67 66 66 66 65 65 65 65 64 64 64 64 64 65 66 66 64 64 65 65 65 66 67 66 65 65 64 65 67 65 66 65 65 64 65
66 65 67 69 67 67 67 67 66 67 66 66 65 64 64 64 64 64 64 64 64 64 64 64 64 63 62 62 62 63 63 62 63 64 65 65 65 64 63 63 63 63 64
67 66 66 65 67 67 66 66 66 68 67 67 66 65 64 64 64 64 64 64 64 63 62 62 63 63 64 64 63 62 61 60 60 61 61 62 62 61 61 61 62 62 63
64 65 66 66 66 65 64 66 66 66 67 67 66 66 65 65 65 64 63 63 62 61 60 60 61 62 62 62 61 62 61 59 58 59 60 61 63 63 63 61 61 62 61
66 67 64 63 61 61 61 63 63 64 66 67 67 70 66 66 65 63 62 61 58 56 57 57 60 60 61 59 60 59 57 56 57 56 57 57 58 59 59 60 60 59 60
63 62 61 60 58 58 59 59 62 63 64 66 68 69 66 64 64 62 60 57 55 54 53 55 57 58 59 58 59 60 58 59 58 57 57 58 57 55 55 57 58 58 59
61 60 59 57 56 56 56 57 61 61 61 63 65 66 65 64 62 60 57 55 53 52 50 50 51 56 57 55 55 56 53 51 51 53 57 56 56 56 57 57 55 55 56
58 57 57 55 54 54 55 55 56 60 61 60 64 66 64 63 60 55 52 50 49 48 48 52 55 55 54 53 54 54 51 50 49 50 52 52 52 56 56 55 53 53 52
57 56 55 53 53 52 52 55 54 55 54 56 57 65 64 60 56 54 51 50 51 48 49 50 53 54 54 52 52 56 54 49 49 49 49 54 51 52 52 53 53 52 52
55 56 55 53 53 51 51 52 52 51 53 54 55 55 57 56 54 53 52 51 49 48 48 48 51 51 53 51 50 52 55 53 52 50 49 48 50 49 49 51 53 51 53
55 55 53 52 52 53 52 50 50 52 52 52 51 51 53 53 52 50 50 51 50 49 49 48 48 49 49 49 49 49 51 54 52 50 50 48 47 46 48 51 48 49 52
54 54 52 51 52 52 52 50 51 52 52 51 50 50 51 51 51 50 49 49 50 49 48 48 47 47 48 49 48 48 50 51 49 49 50 49 47 48 49 48 48 48 45
53 53 52 50 50 52 52 52 51 51 50 48 48 48 48 48 48 48 49 48 48 47 47 47 46 46 47 48 48 49 49 51 49 50 51 50 49 48 46 44 43 42 41
53 53 52 51 51 52 51 52 52 52 49 48 47 47 46 45 44 43 44 46 46 48 47 46 47 47 46 44 44 46 49 48 47 44 41 40 39 40 39 40 39 40 40
53 50 52 52 51 51 49 51 53 53 52 50 50 49 49 49 48 47 45 46 45 43 42 42 45 41 43 41 42 43 43 43 44 40 38 37 37 37 37 38 38 37 40

GFSMW_sfc_temp_015.txt.gz
Temp
78 78 78 77 72 73 71 72 73 72 73 73 75 77 77 79 79 78 79 79 80 79 78 80 78 75 75 79 78 77 77 79 80 78 79 78 78 76 80 81 79 83 84
76 75 77 75 74 76 78 72 74 72 70 75 75 76 77 77 78 77 77 77 77 75 74 73 79 77 75 74 77 77 76 80 80 77 75 73 76 77 79 80 83 83 84
76 74 75 73 79 77 78 76 76 73 70 71 78 74 77 77 78 79 79 77 77 77 76 73 73 76 71 70 71 76 77 76 79 78 73 70 74 76 79 79 81 82 83
77 75 73 73 76 77 79 74 75 71 73 75 75 73 76 76 78 77 77 77 77 77 78 77 75 73 72 69 70 75 76 75 75 77 77 76 75 70 71 79 80 81 81
78 75 74 76 77 77 77 75 72 72 74 75 76 77 75 77 76 77 75 75 76 77 77 77 77 76 75 71 69 70 75 77 75 76 78 75 73 73 69 73 77 79 83
78 77 76 75 76 75 76 75 72 72 75 76 75 74 73 74 75 75 75 76 77 78 76 76 76 77 77 75 73 74 76 76 76 77 79 77 73 72 71 70 74 79 82
79 75 73 73 74 75 77 77 75 74 77 76 75 75 74 74 73 73 75 74 76 77 75 75 74 77 76 76 75 76 76 76 76 76 79 80 79 75 75 73 77 77 81
77 76 75 76 76 76 76 77 76 76 76 77 75 75 75 77 76 75 75 75 74 75 76 76 77 77 75 74 73 77 75 75 75 76 76 78 75 72 70 73 69 71 75
77 76 77 76 77 77 76 78 77 77 77 77 76 75 75 75 74 74 75 76 73 74 76 77 76 78 77 76 75 76 74 74 74 75 75 75 73 68 74 75 75 70 72
76 75 76 76 78 79 78 79 79 77 77 77 77 76 76 75 75 75 74 74 73 70 73 73 75 76 76 76 74 72 73 72 71 72 72 74 77 76 74 72 76 76 71
76 75 76 77 77 80 79 79 78 78 77 77 76 76 76 76 75 75 75 74 73 73 72 70 70 71 74 75 72 71 71 70 71 71 70 72 73 75 75 75 74 72 72
74 76 76 75 77 79 80 79 79 79 79 78 77 76 77 77 76 75 74 75 73 73 73 69 67 68 70 71 72 71 71 70 70 71 69 70 72 71 72 71 70 66 66
73 75 74 68 72 77 78 79 79 79 80 78 78 77 77 77 75 74 73 74 73 73 73 72 70 69 68 67 66 66 64 63 65 68 69 68 69 67 66 66 66 66 66
73 75 72 72 75 77 77 79 79 80 80 79 78 77 76 76 76 74 72 73 73 73 73 72 72 71 71 71 69 67 65 62 62 62 62 62 62 63 63 63 63 64 64
73 73 73 73 74 75 76 77 79 78 79 77 78 77 77 76 74 70 71 72 71 71 71 72 71 72 70 68 67 67 67 62 60 59 60 61 62 62 62 61 60 62 63
72 73 73 73 74 74 75 75 76 77 77 77 78 78 76 75 73 67 71 71 70 69 70 69 70 69 69 58 61 66 65 63 62 60 59 57 57 59 59 60 60 59 60
71 71 70 68 67 70 69 68 68 71 74 75 77 76 76 74 70 67 70 69 67 66 65 66 68 66 65 57 58 62 67 64 62 62 61 61 59 58 59 59 59 59 59
67 65 63 64 65 66 67 67 68 70 68 67 72 75 74 72 67 69 68 67 68 65 63 62 62 64 61 55 55 60 66 66 65 64 65 65 64 63 64 64 63 62 63
64 62 64 63 61 64 63 66 68 69 67 65 65 68 70 68 66 66 65 66 66 65 63 61 61 62 61 53 54 63 66 64 64 65 66 66 64 55 58 65 62 62 62
60 60 62 61 60 59 61 62 62 64 61 61 60 61 67 65 64 63 62 64 66 65 65 60 60 57 60 50 52 62 68 64 65 64 62 53 59 51 53 65 64 61 62
59 61 62 60 58 59 60 58 57 55 56 57 57 57 58 58 58 59 62 62 62 61 56 57 58 57 57 55 50 53 62 62 61 62 60 59 50 48 49 52 60 57 60
59 61 58 57 57 58 59 55 54 55 55 55 55 54 53 53 53 54 55 55 59 58 56 54 50 55 53 51 49 50 52 56 55 55 55 53 46 45 47 51 48 51 59
59 61 58 56 56 57 58 55 54 55 54 53 52 52 52 52 52 52 52 51 53 52 51 49 49 49 51 52 48 49 50 52 54 53 51 49 47 48 52 49 51 55 65
59 61 60 57 54 56 56 55 54 53 53 51 51 52 51 51 51 51 52 52 50 49 48 49 49 50 51 52 53 53 53 53 58 56 60 54 53 52 57 60 61 63 63
60 61 58 56 54 55 55 57 55 56 53 53 52 51 50 49 46 44 47 48 49 50 49 50 52 53 52 52 49 52 52 54 53 59 62 62 61 61 61 60 61 62 62
60 57 56 56 55 56 57 57 56 56 57 56 55 54 52 50 49 48 45 45 43 42 42 43 50 50 46 42 41 41 41 43 45 60 60 59 59 58 59 59 59 60 58

GFSMW_sfc_temp_021.txt.gz
Temp
96 96 96 96 92 89 88 87 84 78 75 76 76 86 86 80 83 85 90 89 88 87 85 82 82 82 80 86 85 81 86 88 89 81 85 88 90 86 87 87 86 82 85
92 92 92 91 84 85 85 85 80 76 75 76 76 85 86 89 85 89 89 87 85 86 83 81 80 81 79 81 81 81 78 80 80 81 83 81 87 90 89 86 82 85 84
90 89 88 88 87 84 85 84 80 79 74 76 81 83 86 85 85 84 90 90 88 86 82 82 81 79 78 77 80 79 78 75 77 80 83 80 80 86 82 83 85 85 81
93 90 88 85 86 88 89 87 82 81 79 79 78 83 80 82 88 88 89 86 87 84 83 81 82 80 79 78 78 79 80 76 73 76 85 85 84 77 75 79 78 82 80
94 91 90 87 88 89 87 87 83 82 83 84 84 83 80 88 89 88 85 85 86 86 83 83 81 80 79 80 78 79 77 79 76 76 76 81 85 82 77 73 75 82 86
94 92 89 88 87 89 87 86 83 82 84 84 84 82 82 82 83 83 85 87 89 85 83 83 81 78 78 78 79 79 78 78 80 73 76 73 79 80 77 71 74 78 77
93 88 86 85 85 85 86 85 82 80 83 82 84 84 82 82 83 82 85 82 86 83 78 81 81 80 78 79 79 78 78 77 77 74 76 76 81 81 75 75 76 77 77
93 90 88 86 86 87 86 86 85 82 80 83 83 83 83 88 88 84 83 83 83 80 80 77 82 81 81 81 81 82 81 80 79 76 77 77 79 87 75 77 73 72 78
93 92 90 87 88 88 87 88 85 85 85 85 83 83 83 83 82 82 82 83 79 81 80 78 78 82 81 81 81 81 80 76 76 75 73 76 78 86 88 84 75 73 71
93 92 91 89 90 90 89 89 87 85 86 86 85 84 84 84 83 83 79 79 79 77 76 78 80 76 80 81 80 79 79 79 76 75 76 77 78 80 80 83 84 77 75
93 92 92 92 92 92 91 89 89 87 86 87 85 84 85 86 82 83 81 79 78 76 75 75 76 77 78 78 78 77 78 77 76 76 75 76 79 78 78 78 78 75 73
94 93 93 92 91 92 92 90 89 88 87 87 85 85 85 85 80 82 81 77 78 77 76 75 75 75 75 77 76 73 73 72 71 72 73 74 76 76 76 75 75 73 74
91 91 90 88 89 90 90 90 90 89 89 87 86 86 86 85 79 80 80 78 78 78 77 76 74 75 75 74 74 72 70 69 68 68 67 68 71 68 69 70 70 71 71
88 88 85 85 86 83 80 88 91 92 90 89 88 86 86 85 82 81 81 79 79 78 76 76 76 76 75 74 73 72 70 69 67 65 66 67 66 67 67 66 66 67 66
86 85 83 82 81 81 85 89 90 90 90 87 88 86 86 85 82 82 81 79 78 78 77 75 76 78 77 74 74 72 71 69 67 66 63 62 63 62 63 66 65 67 65
86 85 83 81 82 84 87 88 89 89 90 86 85 86 84 83 79 81 78 76 75 75 76 76 74 76 76 60 63 70 72 70 70 69 69 70 68 63 61 62 62 65 66
87 84 83 82 83 85 86 86 87 85 84 81 87 86 83 80 79 81 79 73 72 73 74 74 75 74 71 59 60 65 73 72 71 71 71 72 71 69 69 63 64 63 63
87 83 84 83 86 86 84 83 83 83 83 81 81 81 79 79 79 79 75 73 72 71 72 72 71 72 68 57 57 61 75 73 72 72 72 71 70 65 71 70 67 66 65
88 84 84 82 81 81 81 82 82 83 83 79 77 75 76 76 73 74 72 72 71 71 71 72 71 71 69 56 58 63 75 72 71 69 65 71 69 56 58 70 67 66 65
80 80 76 76 75 73 78 79 78 80 76 74 73 71 69 70 70 70 69 70 69 71 71 71 70 63 69 52 54 60 75 72 72 70 67 54 58 53 55 70 69 67 68
77 77 77 75 73 74 74 73 73 68 69 69 68 65 61 60 65 66 67 67 70 69 70 67 67 65 55 57 52 54 74 71 72 71 67 64 52 50 52 57 69 65 66
74 78 74 72 72 73 73 69 64 65 66 65 63 61 59 57 58 59 60 60 65 66 66 64 67 64 60 50 50 51 53 62 69 66 66 59 49 49 49 60 52 53 57
76 78 73 68 68 69 70 65 62 64 64 62 60 58 57 55 55 55 56 54 55 59 58 51 51 51 51 53 50 50 53 54 66 67 56 51 48 50 56 54 55 54 71
73 73 72 69 66 67 67 66 65 65 64 61 58 56 54 53 53 53 54 53 52 52 50 50 53 52 54 54 57 58 60 55 56 55 60 58 57 53 60 62 66 71 71
69 69 68 67 63 65 65 66 66 66 65 64 62 60 57 53 49 47 49 51 49 51 53 54 55 55 54 53 47 53 60 64 59 58 58 57 69 70 70 70 70 70 70
65 65 66 65 64 65 64 65 66 67 67 65 66 63 62 61 59 56 52 45 45 44 43 44 50 50 46 44 44 44 47 47 49 60 65 70 70 70 70 69 69 69 65

GFSMW_sfc_temp_024.txt.gz
Temp
95 95 96 96 87 88 83 84 83 81 77 72 70 72 77 81 81 75 72 70 71 82 81 79 77 77 76 78 77 75 71 69 71 72 77 79 80 79 81 80 80 80 81
92 92 90 88 88 86 85 83 81 79 78 72 73 74 76 82 82 82 78 75 79 82 82 78 76 76 74 74 76 75 71 72 75 73 72 69 76 81 82 81 80 79 80
90 89 89 88 87 84 84 82 79 78 78 76 75 75 76 76 77 77 78 81 85 84 82 80 78 76 75 73 74 74 73 70 72 76 71 67 66 74 76 76 76 77 76
91 89 85 85 86 84 86 82 80 78 79 79 78 79 74 73 77 81 79 83 84 84 83 80 79 76 75 74 74 74 74 73 70 73 75 74 73 68 67 72 74 76 76
92 89 88 85 87 87 87 84 80 79 80 79 80 78 77 76 82 82 81 81 79 82 82 79 79 77 75 75 74 74 73 73 71 71 70 70 73 73 69 68 71 74 77
93 90 88 86 86 86 86 84 79 79 81 82 82 82 81 80 79 79 78 80 78 78 77 80 77 77 75 75 74 75 74 72 72 72 71 69 68 69 69 68 70 72 75
91 86 84 84 84 83 84 83 79 79 82 83 83 83 82 81 79 80 79 78 79 78 75 76 76 77 76 76 76 74 74 73 72 73 71 70 72 71 71 70 70 70 72
89 87 86 84 84 84 83 83 80 79 81 82 82 82 83 81 79 79 79 78 77 77 77 77 77 77 78 79 78 77 76 76 74 74 73 72 73 72 71 70 68 67 69
89 87 87 85 84 83 83 83 81 81 81 80 81 81 82 82 80 80 79 78 77 78 77 77 76 76 77 78 77 74 75 75 74 75 74 73 71 72 72 72 72 69 65
91 89 88 86 86 86 85 86 84 81 81 83 82 82 82 82 80 77 77 75 76 76 75 74 75 75 75 76 75 73 73 71 71 72 73 71 71 73 73 72 72 72 69
91 89 89 88 89 89 87 86 84 83 83 83 83 82 83 79 80 75 77 76 75 75 74 73 73 73 72 74 73 73 74 73 72 72 72 72 73 72 72 73 72 71 70
92 91 90 89 89 88 88 84 85 84 84 83 83 83 82 80 79 76 77 77 75 75 74 73 74 74 73 72 72 71 71 70 69 68 70 70 71 70 70 71 70 70 70
90 91 89 88 87 86 81 73 86 86 85 83 83 83 82 79 78 77 77 77 74 75 75 74 74 72 71 70 70 70 68 67 67 67 66 66 68 66 67 69 70 70 69
87 87 85 84 84 82 82 84 88 88 86 85 84 83 79 79 79 79 77 77 76 74 75 74 73 73 73 70 70 69 68 67 66 65 64 65 65 66 66 67 66 66 66
86 84 83 80 79 80 80 86 89 87 86 86 85 82 78 77 80 78 77 76 75 75 75 75 75 74 72 69 68 69 68 67 66 66 65 63 63 63 64 66 65 66 65
86 83 82 79 78 79 80 84 85 86 86 85 86 82 77 77 76 77 75 75 73 74 75 74 73 71 70 60 62 67 68 67 66 66 67 66 65 63 63 63 63 64 65
86 82 80 79 79 81 85 84 82 84 84 84 81 77 81 78 75 76 72 73 72 73 73 72 71 69 66 59 60 63 69 68 68 68 68 69 68 66 66 64 64 63 63
86 82 82 81 83 85 80 81 82 82 83 76 77 76 75 77 77 75 72 72 72 71 71 70 70 67 63 58 57 60 69 68 66 65 68 66 63 60 65 63 60 59 59
85 81 83 81 78 80 81 81 82 81 75 74 74 74 70 70 75 69 69 70 70 69 70 70 70 67 63 56 55 62 69 67 66 64 59 66 63 57 57 64 61 59 59
83 81 79 74 74 76 79 79 75 73 71 71 67 67 65 63 69 70 68 69 70 68 70 68 66 61 62 53 53 58 71 67 66 64 61 55 55 54 55 67 65 62 63
75 76 74 71 72 75 77 72 69 66 67 66 65 63 61 59 62 65 65 67 67 67 66 66 64 61 55 57 52 54 65 68 67 65 62 60 52 50 51 56 60 57 60
75 74 71 68 69 73 72 66 63 64 65 63 61 59 58 57 58 59 59 60 63 62 62 62 60 57 56 51 51 51 53 61 64 62 61 57 50 50 51 57 52 54 55
74 71 66 66 67 69 68 63 62 63 62 60 58 57 56 55 55 55 55 55 55 55 54 52 53 51 52 52 51 50 53 56 62 60 54 52 50 50 55 55 56 55 60
70 70 68 66 64 66 65 64 64 63 62 59 58 57 55 54 54 54 53 53 53 52 51 51 51 52 54 57 58 56 56 55 57 56 57 56 56 55 59 58 61 62 60
66 67 65 63 63 64 63 64 65 65 63 62 61 59 59 56 52 49 50 52 50 52 53 53 54 53 54 54 48 51 60 60 56 58 58 55 55 57 61 62 63 62 61
67 65 65 63 64 64 64 65 66 66 65 64 64 64 62 61 60 56 52 46 45 44 43 45 50 49 46 44 44 45 47 48 49 57 58 58 62 63 62 62 61 61 60

GFSMW_sfc_temp_027.txt.gz
Temp
84 86 88 86 81 79 76 74 73 71 70 69 69 68 69 72 73 73 73 73 72 72 71 73 72 72 71 71 70 70 69 68 69 68 66 70 72 74 77 76 75 76 78
81 82 81 81 79 77 77 75 72 72 69 68 69 71 72 73 75 75 73 73 73 71 73 72 71 72 70 70 70 70 68 67 69 65 63 63 65 71 73 74 72 73 75
80 79 81 79 78 75 76 73 73 72 72 73 72 72 72 72 71 72 72 74 75 75 74 74 71 71 70 69 69 69 68 67 68 70 66 63 61 64 69 70 71 71 72
82 80 78 75 77 77 77 74 73 72 73 74 74 72 70 69 71 72 73 74 76 75 75 72 73 71 70 69 70 70 69 68 66 68 71 69 68 62 62 66 70 71 72
82 79 77 79 77 80 76 75 73 72 72 72 73 72 71 71 72 72 72 73 72 73 74 72 72 71 70 70 70 69 69 68 67 67 67 67 68 68 64 62 64 69 71
83 80 79 79 76 79 77 75 72 71 73 74 74 74 73 72 70 70 70 70 70 70 72 73 71 71 70 70 70 70 69 68 68 69 69 67 66 66 66 63 64 64 67
78 76 76 75 74 75 75 75 72 72 73 74 75 74 73 72 71 70 69 69 69 69 70 71 70 70 71 71 70 70 69 69 68 68 68 68 68 68 68 65 63 63 66
78 77 76 75 76 76 74 75 72 72 73 74 73 73 73 71 70 70 70 69 69 69 70 70 70 71 72 71 71 69 69 69 68 69 68 68 69 69 69 66 64 63 63
78 77 76 75 75 74 74 74 72 72 73 73 73 72 72 72 71 70 70 71 69 71 70 70 70 70 71 71 70 69 69 69 69 68 68 67 68 70 70 69 67 64 60
79 78 77 75 75 75 74 75 74 73 74 74 73 73 73 73 72 70 68 69 72 72 72 72 71 69 70 70 69 69 69 68 68 69 68 69 69 69 69 68 68 68 64
79 78 78 77 77 77 76 75 73 73 73 74 73 73 73 73 71 69 69 72 69 71 72 71 71 70 68 68 67 67 67 66 66 68 68 68 68 67 67 67 67 66 66
80 80 79 79 78 72 68 68 68 72 74 76 74 73 73 72 69 69 69 72 72 71 72 69 69 68 69 67 66 65 65 65 64 65 66 66 67 65 65 66 66 65 65
79 80 79 78 77 66 67 66 67 71 76 76 74 75 72 70 69 69 70 73 72 68 68 68 66 65 68 68 68 66 64 64 64 63 63 63 65 63 65 64 64 64 64
77 76 74 74 73 69 66 68 68 79 78 76 75 74 72 71 70 70 69 70 72 68 67 66 66 64 65 68 68 67 64 64 61 60 60 59 60 63 63 62 62 62 62
75 75 72 71 72 70 68 71 77 79 78 78 77 72 72 74 73 69 69 68 71 69 67 66 64 64 64 66 67 67 65 63 61 59 59 59 63 64 63 60 60 61 60
75 74 73 71 71 73 76 79 78 79 78 76 76 72 71 70 68 68 68 68 71 69 66 63 63 61 64 59 62 66 66 65 64 60 59 59 61 62 63 62 62 62 59
75 72 69 69 69 73 76 74 75 77 75 73 72 71 71 70 70 68 68 68 68 69 64 62 61 59 57 58 59 64 63 64 65 64 59 61 62 59 57 59 59 60 61
75 70 70 72 73 72 73 74 75 72 71 68 68 67 67 67 69 68 68 66 67 68 68 63 59 56 56 56 56 62 61 58 57 57 59 56 55 55 57 55 54 53 54
72 70 71 71 72 72 73 72 70 69 67 64 63 63 63 63 66 68 67 66 66 67 67 65 61 55 53 54 54 59 59 57 55 55 54 55 54 56 58 56 54 53 54
70 69 68 68 67 68 70 66 64 63 61 61 61 59 59 61 66 67 67 66 66 65 64 61 57 57 52 52 52 56 59 56 55 54 53 56 53 53 54 56 54 52 52
67 66 66 65 66 67 64 61 61 59 59 59 58 58 58 58 61 63 65 65 64 62 62 59 54 52 52 53 51 52 61 58 55 54 52 51 52 51 51 52 53 51 52
65 66 63 62 64 63 61 59 58 59 58 57 57 56 56 56 58 58 59 61 61 60 59 56 52 52 52 51 51 51 54 58 58 54 55 52 50 49 52 52 53 54 54
65 66 63 61 63 61 60 57 59 60 58 57 55 54 54 54 55 55 56 56 56 55 53 52 50 50 51 53 51 50 52 55 56 56 54 53 52 51 53 55 55 54 52
64 65 63 61 60 62 59 60 60 59 58 56 54 54 53 52 54 53 53 53 53 52 52 51 50 51 52 53 54 54 54 55 56 56 56 55 53 53 54 55 54 52 50
63 62 59 59 59 60 60 61 61 61 58 56 54 52 50 48 48 47 48 50 48 51 52 52 53 52 51 50 47 48 53 54 50 54 55 51 48 48 49 50 50 51 51
63 60 59 60 60 60 61 62 63 59 57 55 54 53 51 50 49 47 46 46 45 44 43 45 50 49 46 45 45 45 46 49 50 50 48 47 47 48 48 48 49 48 50

GFSMW_sfc_temp_030.txt.gz
Temp
78 79 83 81 77 76 74 72 70 69 70 67 67 68 69 70 72 71 72 72 70 72 70 70 71 71 69 69 68 66 66 66 67 67 66 67 70 70 72 73 75 74 72
76 79 77 78 77 75 72 70 69 68 68 67 67 68 70 71 73 71 71 72 73 72 71 71 71 71 69 68 68 68 66 67 68 65 63 61 65 69 71 72 71 73 72
74 75 76 76 76 74 71 70 69 69 70 69 71 71 71 71 69 70 71 73 74 74 72 71 69 69 69 68 68 68 67 65 66 68 64 61 60 63 66 69 70 71 70
77 76 76 73 74 73 73 71 70 70 71 71 71 71 69 68 69 70 70 70 72 72 72 71 70 70 69 68 68 69 67 66 64 67 69 68 67 63 62 65 67 70 70
77 76 75 75 75 75 73 71 70 70 71 71 71 69 70 70 70 69 69 69 69 71 72 71 70 69 69 69 68 68 67 66 66 65 65 66 66 66 64 62 64 67 69
77 76 75 75 74 74 73 72 70 70 71 71 71 71 70 69 68 67 67 67 68 68 69 71 70 69 69 68 68 68 68 67 66 66 67 67 65 64 65 63 64 63 65
75 74 72 71 71 71 72 71 69 69 70 72 72 71 70 70 67 67 66 67 66 66 67 68 68 68 69 69 69 68 68 67 66 66 66 67 67 67 66 65 64 63 64
74 73 72 71 72 72 71 71 69 70 71 72 71 70 70 68 68 67 67 66 66 66 68 68 68 69 69 69 69 68 68 67 67 67 66 66 67 68 67 65 64 62 62
70 72 72 72 72 70 70 70 69 70 71 70 70 69 69 68 67 67 67 66 69 72 72 70 68 68 69 68 68 67 67 67 67 67 67 66 66 68 68 67 66 64 60
73 72 73 72 71 72 70 71 71 70 70 71 70 70 69 68 68 67 66 67 68 72 71 71 69 67 67 67 66 66 66 66 66 67 67 66 67 67 68 67 67 66 63
74 73 74 72 73 73 70 68 69 68 69 70 70 70 68 68 68 66 67 67 67 70 70 69 66 65 65 64 64 64 64 63 63 64 65 65 65 65 66 66 66 65 65
73 74 74 73 72 68 68 69 71 70 70 72 70 70 69 68 67 66 67 71 67 66 68 65 64 65 64 63 65 65 64 62 61 61 62 63 65 63 64 65 64 64 64
68 70 72 72 68 67 67 69 70 71 71 72 71 69 68 67 67 66 67 69 66 65 65 65 63 63 64 63 62 61 61 60 59 59 59 60 62 62 61 62 62 62 62
69 68 70 68 68 66 65 68 69 71 72 74 71 69 69 68 66 67 67 67 66 65 64 63 62 62 63 63 62 61 60 59 58 58 58 59 62 62 60 61 61 60 61
66 70 66 66 68 66 65 71 70 70 75 74 72 71 69 68 66 66 66 66 66 65 63 61 61 60 62 63 62 62 60 59 58 57 59 60 63 63 62 59 59 59 58
70 69 69 68 68 68 67 71 72 74 74 73 71 70 69 68 66 66 66 66 65 63 61 60 59 58 62 59 62 63 63 60 58 57 57 58 59 59 61 61 62 61 57
69 68 70 70 69 70 72 72 72 72 71 70 69 69 68 68 66 66 66 67 65 63 60 59 57 55 55 57 60 62 58 57 58 55 55 58 59 56 55 58 59 59 61
68 69 69 68 68 70 70 70 72 69 66 65 65 65 66 67 66 66 66 66 66 65 59 59 55 54 55 55 58 60 57 55 55 55 54 53 54 55 55 54 53 52 53
68 68 68 69 69 68 68 66 65 64 64 62 62 62 62 63 67 67 65 65 65 66 63 60 56 53 53 52 54 57 55 54 53 53 53 54 53 56 57 55 53 52 52
67 68 67 68 67 65 65 63 62 61 60 59 59 59 61 62 66 66 64 65 65 62 61 58 55 54 52 51 51 57 56 53 52 51 51 56 53 52 55 54 52 51 50
64 65 64 63 62 62 63 61 59 58 58 57 56 57 58 59 62 65 65 63 61 60 58 55 54 52 51 55 50 53 60 59 53 51 50 50 51 50 50 52 52 51 50
62 62 61 60 60 60 60 58 57 56 57 57 57 55 56 56 58 60 62 61 60 57 55 53 51 52 53 51 50 50 55 56 54 54 50 50 49 48 50 53 51 50 51
62 62 61 59 59 59 59 57 56 55 55 55 55 54 54 54 55 56 57 56 56 55 53 51 50 51 52 52 51 50 52 54 56 56 54 52 49 50 53 52 52 51 49
61 60 60 59 58 57 57 57 56 56 55 55 54 54 53 52 53 53 54 54 54 53 52 51 51 51 52 53 54 54 55 54 52 56 55 52 52 51 52 51 50 49 48
62 59 57 58 58 58 58 59 58 57 55 54 53 51 50 50 49 47 49 50 49 52 52 52 53 52 51 50 47 49 53 53 52 53 53 51 47 47 47 47 47 46 47
58 59 59 59 59 59 59 59 57 55 52 50 49 48 47 47 47 48 46 47 45 44 44 47 49 49 47 44 44 44 44 46 48 52 48 45 44 46 45 46 45 45 48

GFSMW_sfc_temp_033.txt.gz
Temp
76 77 79 77 74 74 72 72 70 69 68 68 67 68 68 69 70 71 72 71 70 71 69 68 70 69 68 68 67 66 65 64 65 65 65 65 68 70 71 72 71 72 73
73 75 74 75 74 72 70 69 68 68 67 67 68 68 69 70 71 72 72 71 71 70 69 68 69 69 68 68 67 67 66 65 66 64 63 62 64 67 69 69 69 70 71
74 72 73 72 73 71 70 68 68 67 67 69 70 70 70 70 69 69 69 70 72 72 71 70 69 68 68 67 67 66 66 64 67 66 64 60 60 63 67 68 68 69 69
75 73 72 71 72 71 71 68 68 67 68 70 70 70 68 66 68 68 68 68 70 70 71 70 70 68 68 67 67 68 66 65 63 66 67 66 66 62 61 65 66 68 68
75 72 73 73 73 73 71 70 68 68 69 70 70 69 68 68 68 67 67 68 68 69 70 70 69 68 67 67 67 67 66 66 64 64 64 64 65 66 63 62 64 65 67
74 72 74 73 71 72 71 70 68 68 69 69 70 70 69 68 66 66 66 66 66 67 67 69 68 68 68 67 67 67 67 66 65 65 65 64 64 64 63 62 63 63 65
69 66 63 69 70 69 70 69 68 67 68 70 70 69 69 68 67 66 65 65 65 65 66 67 67 67 68 68 67 67 66 66 65 65 65 66 66 66 65 64 63 63 64
67 63 65 68 70 70 70 69 68 68 69 70 71 69 68 67 66 66 65 65 65 65 67 68 67 68 68 67 67 66 66 66 65 66 65 65 66 67 66 65 63 62 62
66 64 69 68 70 70 69 69 68 69 69 69 68 68 68 67 66 66 65 65 66 72 70 70 66 66 66 66 66 65 65 65 65 66 65 65 65 67 67 66 66 64 60
68 69 68 68 69 69 69 69 70 70 70 69 68 68 66 67 66 65 65 65 65 69 66 65 65 64 64 64 64 63 63 64 65 65 65 65 65 65 67 66 66 66 63
70 68 68 69 69 69 69 68 69 69 69 70 69 67 66 66 66 66 65 65 64 65 64 64 64 63 63 63 62 62 62 62 61 63 63 63 64 64 65 66 66 66 65
70 71 69 68 68 66 67 68 68 70 71 70 70 68 67 66 65 65 65 65 64 64 63 63 63 63 62 62 64 61 60 60 59 60 61 61 64 62 63 63 63 65 65
70 70 69 70 67 66 67 68 68 69 69 69 68 67 67 66 65 65 65 64 64 63 63 62 62 62 61 60 60 59 58 58 58 58 59 60 62 62 61 60 60 60 62
67 67 68 67 67 65 67 66 66 69 68 69 68 67 66 65 65 65 65 64 64 63 61 61 61 61 61 61 60 59 57 57 57 58 60 61 59 58 59 59 59 61 62
65 66 66 66 66 64 64 66 67 68 70 69 68 67 65 66 66 65 65 64 64 62 61 60 59 59 61 61 60 59 57 56 56 56 57 58 62 63 62 59 58 58 60
66 68 68 66 66 65 64 69 68 68 69 71 69 68 66 66 66 65 64 63 62 60 60 58 58 57 60 58 61 61 58 57 56 54 54 56 58 58 61 61 62 60 57
65 68 70 67 66 66 66 66 66 68 69 70 69 68 67 66 65 65 65 64 63 62 59 57 56 55 54 57 59 61 57 56 54 53 54 56 57 55 54 58 58 59 60
65 67 66 67 67 68 67 66 66 65 65 66 66 67 67 66 65 65 65 64 64 62 59 56 56 54 54 55 57 59 55 54 54 53 52 52 53 54 54 53 52 51 52
65 66 66 66 68 66 66 65 65 65 64 62 62 62 64 65 66 65 65 64 63 61 60 58 57 54 53 52 55 56 53 52 51 52 52 53 53 57 56 54 51 50 51
65 65 66 66 66 64 66 67 66 64 61 60 60 61 61 62 65 66 65 64 63 60 59 57 56 55 53 51 51 55 54 52 51 50 51 55 52 53 54 53 51 50 49
63 63 63 63 62 61 63 62 61 60 59 58 58 59 59 60 64 65 64 61 59 57 55 55 54 54 51 54 49 53 59 56 54 50 50 50 51 49 50 52 51 51 50
62 62 60 59 59 59 60 59 56 56 57 56 56 57 58 57 60 63 61 60 57 54 53 53 51 52 52 50 49 50 54 56 56 52 52 51 49 49 50 51 50 50 51
61 62 59 57 58 59 58 57 55 55 56 56 55 56 55 55 56 59 59 57 56 54 53 52 51 51 51 51 50 49 52 54 55 55 53 51 48 49 50 50 50 50 47
59 60 60 58 57 57 57 56 56 56 58 56 56 54 54 53 54 54 55 55 54 53 52 51 51 51 51 53 53 52 54 54 54 55 52 53 52 51 50 49 48 46 45
59 60 58 57 57 57 57 57 58 56 55 55 54 52 52 51 49 48 50 51 50 53 53 52 52 51 50 51 47 49 52 53 52 53 50 53 51 48 46 45 46 45 45
59 58 58 58 58 58 58 55 55 54 52 50 49 49 50 49 50 48 45 47 45 44 46 47 49 49 47 44 44 44 45 46 48 51 45 44 44 45 44 44 43 43 46

GFSMW_sfc_temp_036.txt.gz
Temp
75 76 77 77 74 73 72 72 71 69 68 68 67 68 68 69 70 70 71 73 73 73 72 71 71 72 71 71 70 69 68 67 67 67 67 68 70 71 73 74 75 76 76
72 74 73 74 73 71 72 70 68 68 68 68 68 68 69 69 71 70 73 73 73 73 72 71 71 71 70 70 70 68 68 67 67 66 65 65 68 69 71 72 72 73 73
71 71 72 71 72 70 71 69 69 68 68 69 70 70 70 70 70 69 70 71 73 72 72 72 71 70 70 69 69 68 68 66 67 68 67 62 63 65 68 70 70 72 72
67 65 65 65 68 70 70 69 68 67 68 70 71 71 68 67 68 69 69 70 71 72 72 71 71 71 70 69 69 70 68 67 66 68 68 68 68 63 62 68 67 71 70
67 65 65 64 70 68 69 68 68 67 68 70 71 70 68 68 68 68 69 69 69 70 71 71 70 70 70 70 70 69 69 68 67 67 67 67 68 68 66 64 65 68 69
67 66 67 67 68 70 71 69 67 67 69 69 71 70 69 68 68 68 68 68 67 68 69 70 70 70 70 70 70 70 69 68 68 68 68 67 67 66 65 63 63 64 66
67 69 67 67 64 67 70 69 68 67 68 69 71 70 69 68 68 67 67 67 67 67 67 69 68 69 69 70 70 69 69 69 68 68 67 68 69 68 68 65 64 64 65
66 66 65 64 64 70 70 69 67 67 69 70 69 69 68 68 68 68 67 67 67 68 70 68 68 68 68 69 68 68 68 69 68 68 68 68 69 70 68 67 65 62 63
67 67 67 68 70 70 69 68 68 68 69 69 68 68 68 68 67 67 68 67 67 70 68 67 67 67 67 67 67 66 66 67 68 68 68 68 69 70 70 69 69 66 61
68 67 68 68 70 70 69 69 70 69 69 69 69 68 68 68 67 67 67 66 67 67 67 66 66 66 66 66 65 64 65 65 65 66 67 67 68 69 69 68 69 68 65
70 69 68 69 70 70 69 69 69 68 68 70 69 68 68 67 67 67 67 66 66 66 65 65 65 65 65 65 64 64 64 64 64 65 65 65 66 66 67 69 69 68 67
68 69 68 68 68 68 68 69 69 69 70 70 69 68 68 68 67 67 67 66 65 65 65 65 64 64 64 63 63 62 62 61 62 63 64 63 65 64 65 66 66 68 67
67 68 67 68 67 67 68 69 69 70 70 70 69 68 67 67 67 67 66 66 65 65 65 65 64 63 63 63 62 61 61 61 61 63 63 63 64 63 63 63 63 65 65
65 67 66 66 66 67 67 68 67 70 70 70 69 68 67 67 67 67 66 66 66 64 63 63 64 64 64 63 62 61 61 61 60 60 61 61 62 62 63 62 62 63 62
66 65 65 65 65 64 65 67 68 69 69 70 70 68 67 67 67 67 67 66 65 64 63 62 62 63 64 64 63 62 61 60 60 59 60 62 63 63 63 63 62 63 61
66 66 67 65 65 65 65 66 67 68 70 70 70 68 67 67 66 67 66 65 64 63 62 61 61 61 63 59 61 62 61 60 58 57 58 59 60 60 61 61 61 62 63
63 66 67 64 63 64 67 65 66 67 68 70 69 69 67 67 66 66 65 64 63 63 60 59 60 59 60 58 59 61 60 59 58 58 58 60 60 58 59 59 59 59 59
63 65 66 65 65 65 66 67 68 68 68 68 69 68 68 67 66 65 64 64 64 62 60 58 58 58 57 56 56 58 59 58 57 57 58 58 58 58 58 58 57 57 58
64 65 67 68 67 65 67 67 67 67 66 64 65 65 67 66 66 65 64 64 63 61 60 59 59 58 56 53 54 58 58 57 56 56 58 59 59 56 56 58 57 57 58
64 65 66 67 67 66 66 66 65 64 63 62 62 63 64 65 65 66 65 64 62 59 59 57 57 56 56 50 53 57 59 57 57 56 56 55 56 53 53 59 58 57 57
63 64 64 62 61 62 64 63 61 60 59 60 61 60 61 62 64 65 64 62 59 57 57 56 56 54 53 53 51 53 61 59 58 57 56 56 51 49 49 52 58 57 58
62 62 61 60 60 61 61 58 58 58 59 59 59 59 59 60 62 63 61 58 57 55 54 55 53 54 55 50 49 52 54 57 59 55 56 56 49 47 48 53 48 49 53
61 61 59 58 58 59 60 58 57 59 59 59 58 57 57 56 58 61 59 57 56 54 54 54 52 52 53 53 49 49 51 54 55 56 53 50 48 49 52 49 49 51 56
61 61 60 58 57 58 58 57 58 59 59 57 56 55 55 55 56 56 57 57 56 54 53 53 52 52 53 55 55 55 56 54 55 55 56 54 53 51 52 56 55 56 56
60 61 59 58 57 57 57 58 57 58 57 57 56 54 54 53 50 48 50 53 51 54 54 53 53 51 52 52 48 51 52 53 53 54 54 55 56 57 56 56 55 55 56
60 59 59 58 58 58 58 56 58 58 56 54 53 52 52 52 51 51 49 47 45 44 45 47 51 53 47 44 44 44 45 45 47 54 53 54 55 56 56 56 56 55 54

GFSMW_sfc_temp_042.txt.gz
Temp
95 94 89 84 77 76 71 68 68 77 81 77 77 75 70 71 74 72 76 81 87 86 86 83 87 87 84 86 85 85 82 79 82 78 84 87 88 87 89 90 91 91 91
86 83 83 84 78 74 72 72 73 82 80 86 86 85 73 75 72 73 74 80 76 86 86 86 85 85 84 83 82 81 78 81 79 79 79 76 84 89 89 91 90 89 90
85 84 83 84 83 76 77 74 78 81 84 85 85 83 83 81 76 76 82 85 86 86 86 85 84 84 84 87 83 82 80 82 81 80 76 73 80 78 87 85 89 86 83
86 85 86 78 85 82 83 78 79 81 84 84 84 82 84 80 82 81 81 82 84 85 85 84 84 83 86 83 84 84 79 75 72 77 80 79 77 72 71 81 82 81 77
87 85 84 80 86 82 84 84 82 82 83 84 85 84 83 81 79 81 81 81 82 83 84 82 82 81 79 80 80 79 77 75 74 75 74 77 77 76 73 72 78 79 73
86 86 85 83 82 85 86 86 82 81 83 84 84 82 80 81 82 80 80 84 85 83 82 81 77 77 80 81 83 81 80 76 78 78 73 72 75 78 73 72 72 74 69
85 83 82 82 81 83 86 86 83 80 83 84 84 82 80 80 79 80 81 81 84 79 79 79 77 76 79 81 79 79 81 82 77 76 74 74 74 76 75 74 71 65 70
85 84 83 81 83 85 86 86 83 81 83 84 83 83 79 81 82 81 82 83 83 82 78 79 78 78 79 80 78 78 80 79 78 78 77 76 76 77 77 74 73 67 66
86 86 84 83 86 87 86 86 81 82 83 84 82 82 82 81 81 80 82 83 81 82 80 77 77 78 78 78 78 77 74 75 75 76 77 77 79 79 78 74 72 71 66
88 86 86 85 88 88 84 83 84 83 82 79 82 83 82 82 82 82 80 80 80 80 79 77 77 77 79 80 81 81 76 76 76 75 75 76 77 79 78 77 76 74 72
89 86 88 87 90 87 81 83 83 81 75 73 84 83 83 82 81 81 80 80 80 79 79 77 78 78 78 77 77 78 77 74 73 75 75 74 76 77 77 75 76 75 74
87 88 87 87 83 76 72 77 81 81 76 72 83 83 82 83 81 81 80 80 78 79 79 79 79 79 79 79 78 78 77 74 72 73 74 76 79 77 75 76 73 73 74
85 85 85 77 79 75 74 77 80 84 75 80 84 84 83 82 81 80 80 80 79 79 80 79 78 78 78 78 78 77 77 76 73 72 72 71 73 71 72 72 72 71 70
82 82 75 76 78 76 74 78 82 86 85 85 84 82 82 82 82 81 80 80 80 79 79 79 78 78 79 78 78 77 76 76 76 74 74 74 73 71 73 73 73 72 70
82 79 74 78 78 76 75 78 81 84 87 84 84 81 81 81 82 80 80 80 80 79 79 78 79 79 80 79 77 77 76 75 75 75 75 72 67 63 64 78 72 72 72
82 81 78 79 78 78 78 77 80 83 86 85 82 82 80 80 79 79 77 79 79 78 78 78 79 78 79 60 63 72 76 75 74 73 74 75 72 66 62 63 63 65 72
81 80 80 80 79 80 79 78 78 79 83 84 84 81 77 78 79 79 77 77 77 76 75 77 78 76 73 60 62 66 76 75 74 73 74 76 76 74 75 64 65 65 64
82 82 83 82 81 82 80 75 74 70 78 82 84 80 77 78 76 76 76 74 76 74 73 74 76 75 70 58 59 63 75 74 74 74 73 72 71 67 73 74 72 70 69
77 81 84 83 82 82 80 77 73 69 74 81 81 79 78 76 73 72 75 74 74 74 74 75 75 73 70 55 57 65 75 73 73 73 72 73 70 56 58 72 70 70 69
74 77 82 83 81 78 78 76 74 73 78 80 76 73 75 74 71 73 75 73 72 73 77 73 72 63 71 52 54 63 78 69 72 72 70 56 63 54 55 72 71 69 70
68 74 76 79 73 75 77 75 74 73 76 74 75 73 73 72 73 72 72 68 69 72 72 70 68 70 67 66 52 55 69 71 72 70 72 69 53 51 53 55 70 66 68
67 68 67 66 68 70 75 73 68 66 68 69 71 72 71 74 75 69 68 66 66 68 69 70 70 70 70 52 52 52 57 61 65 62 66 63 49 49 51 61 50 53 58
70 72 71 69 68 67 69 69 67 68 67 68 66 67 68 69 70 69 63 61 62 67 64 66 70 67 72 68 50 51 53 56 64 66 58 51 48 50 55 52 53 50 76
74 77 76 73 70 69 68 67 66 66 66 66 65 65 63 62 63 63 62 61 67 66 61 63 68 69 67 69 68 69 65 55 65 58 60 59 57 52 63 63 68 75 74
75 76 74 72 69 69 66 65 65 65 64 64 64 64 63 60 56 53 56 60 59 65 63 65 66 69 70 68 57 60 68 69 62 62 66 70 72 73 75 74 75 75 75
76 75 75 74 71 71 68 67 67 66 65 65 68 70 70 62 58 57 53 46 47 45 47 50 60 65 50 45 45 45 46 48 49 66 71 73 74 75 75 75 73 73 69

GFSMW_sfc_temp_045.txt.gz
Temp
99 98 82 81 77 77 81 72 72 75 80 82 79 75 71 70 71 73 77 80 77 83 84 81 83 83 83 84 84 84 83 86 87 83 85 82 82 86 85 87 92 91 86
95 94 83 74 71 77 84 79 77 76 79 85 86 86 80 75 73 73 74 77 80 86 86 84 84 85 83 83 84 83 81 80 82 77 75 74 82 79 87 84 89 91 91
89 88 86 75 76 83 81 81 81 81 83 88 86 84 84 80 74 73 74 76 81 87 87 86 86 85 85 88 82 82 79 76 78 80 77 72 72 75 84 81 79 79 86
92 89 88 73 84 85 85 83 84 83 86 86 87 84 86 82 79 80 81 83 86 87 87 86 85 84 86 80 84 81 80 78 77 77 78 82 79 72 71 78 80 81 81
92 89 88 86 87 88 87 86 85 85 85 87 88 86 80 83 84 81 80 79 82 85 85 84 82 81 79 80 81 81 80 77 74 74 75 75 79 81 73 68 71 76 73
91 90 89 88 87 89 90 89 85 83 85 86 86 84 83 82 80 77 76 78 85 83 83 81 81 79 81 80 80 81 81 79 78 76 80 79 73 76 77 72 69 69 69
89 86 86 86 85 88 90 88 84 82 85 86 86 84 83 82 80 79 79 79 85 82 81 80 81 82 80 81 80 80 80 79 77 78 77 79 77 78 75 73 68 68 70
90 88 88 87 86 88 90 89 84 83 85 86 84 81 83 84 82 81 84 84 83 80 80 81 81 81 81 81 81 79 79 79 79 79 78 77 78 79 77 75 69 66 68
90 90 89 89 89 90 90 88 80 84 85 85 82 80 83 82 81 80 81 82 83 85 79 79 78 78 78 79 81 81 78 80 79 78 79 77 77 78 77 76 73 72 64
92 91 91 91 92 91 90 87 86 85 85 82 83 85 85 84 82 84 82 82 82 81 78 78 78 78 78 79 80 81 77 77 80 79 78 77 77 77 78 77 77 75 73
93 92 92 93 90 90 89 87 83 83 81 81 79 84 85 84 83 83 83 82 82 82 81 81 81 80 79 79 79 78 76 73 73 75 75 76 78 75 77 77 76 75 74
94 94 93 94 90 90 88 86 85 82 81 82 84 85 85 85 83 83 83 83 81 82 82 82 81 81 81 81 81 80 76 73 72 74 74 75 78 74 75 77 74 74 75
91 92 92 91 88 84 82 82 82 84 84 83 86 86 85 84 82 82 83 82 82 82 82 81 80 81 81 80 80 80 78 75 73 74 74 73 73 72 73 74 73 73 73
88 88 88 84 85 82 83 82 85 87 86 87 88 86 85 82 82 81 82 82 82 82 81 81 81 81 81 80 80 79 78 79 77 75 74 73 72 72 75 73 73 71 67
87 86 82 83 83 81 82 84 85 85 86 86 87 85 84 83 80 80 82 82 82 82 81 81 81 81 82 80 79 79 78 77 77 76 75 72 68 65 66 77 73 73 69
86 87 84 84 83 81 82 83 84 85 86 86 86 84 82 82 80 80 80 81 80 81 81 81 82 81 81 64 65 73 77 77 76 75 76 73 71 66 63 65 64 69 72
88 86 85 85 83 83 83 82 83 86 85 84 86 83 80 80 77 79 77 79 77 78 78 79 80 77 74 63 64 68 78 77 76 75 76 78 78 75 75 66 67 66 65
87 87 88 86 85 86 84 82 82 81 82 79 84 82 80 79 78 77 76 77 77 76 75 77 76 76 71 60 61 64 77 76 76 76 75 73 72 68 73 72 69 68 67
83 85 89 88 86 86 83 80 79 79 77 73 79 81 81 81 77 76 76 76 74 74 74 77 74 74 71 58 58 61 77 75 75 74 70 73 71 57 58 73 69 68 67
77 83 86 87 84 83 82 81 78 75 72 72 76 83 80 81 78 75 77 75 75 75 75 74 75 67 72 56 55 61 78 73 72 73 71 57 64 55 56 73 72 70 71
73 78 82 85 82 81 82 79 78 75 74 72 77 77 71 71 75 76 76 76 75 74 73 74 74 73 70 67 55 56 74 69 72 75 71 64 54 54 55 56 70 67 68
72 76 73 72 74 79 78 78 77 72 73 70 74 73 72 74 73 75 74 73 70 68 69 71 72 75 72 59 54 55 57 65 70 68 72 66 52 51 54 63 54 55 57
72 73 72 73 73 73 75 72 68 71 71 70 69 67 68 68 72 72 69 66 65 65 65 71 74 73 74 71 52 53 55 58 67 70 61 53 50 50 58 57 58 54 73
78 79 77 74 71 72 72 70 69 69 68 68 66 66 66 65 66 68 66 65 65 64 66 71 68 69 74 73 71 70 67 57 66 59 65 61 60 57 63 66 66 75 74
79 80 77 76 73 70 71 72 69 69 68 67 67 66 65 62 58 55 56 62 63 61 69 72 68 72 72 72 59 64 72 72 66 65 64 68 71 72 74 74 75 75 74
80 79 78 74 73 71 71 70 70 70 68 68 69 69 67 62 58 56 54 47 47 46 48 49 61 66 51 47 47 47 48 50 52 67 70 71 74 75 75 74 73 73 70

GFSMW_sfc_temp_048.txt.gz
Temp
78 80 75 73 70 76 79 79 76 75 77 81 78 72 73 71 70 73 74 76 75 77 76 75 77 77 77 77 77 76 76 76 77 75 73 75 79 81 81 81 82 83 84
79 79 76 75 76 79 81 80 76 79 81 82 81 80 76 72 72 71 73 74 76 76 78 77 75 76 76 77 77 77 75 77 77 72 72 69 74 78 81 74 80 80 81
80 78 78 77 78 80 82 82 78 80 82 83 81 79 79 73 72 72 72 74 76 76 77 81 79 80 78 76 78 79 77 72 75 76 71 68 67 70 74 73 74 76 73
87 83 78 77 78 82 84 83 82 80 84 84 81 80 77 75 74 75 75 75 80 81 82 82 80 78 79 77 77 78 76 75 72 75 73 73 72 68 67 69 72 72 73
89 87 81 81 83 85 85 84 81 82 83 84 83 81 80 79 80 78 79 78 76 81 82 79 79 78 77 77 78 77 76 75 73 73 73 72 72 72 69 67 68 70 71
90 87 85 86 85 88 85 85 81 81 83 84 82 83 80 80 78 77 75 77 77 78 80 79 78 78 77 76 76 76 76 76 75 73 73 71 71 70 70 68 67 65 66
88 85 82 83 83 85 87 83 80 79 83 84 82 82 81 80 78 78 76 74 75 74 74 75 76 75 77 77 77 76 76 76 74 73 73 73 72 74 72 70 66 65 66
87 85 86 86 85 87 87 85 79 80 82 83 81 81 81 81 80 78 76 76 75 75 76 76 77 76 77 77 77 77 76 76 74 74 73 73 74 73 72 68 66 64 66
88 88 88 87 86 87 88 85 82 82 82 80 78 79 79 79 78 79 81 77 77 78 77 75 75 76 75 77 78 74 73 74 74 74 74 73 73 73 73 73 71 68 64
90 90 89 88 89 89 89 85 85 82 82 78 77 78 80 80 80 80 78 78 76 75 76 75 75 75 76 77 76 75 73 73 73 73 72 72 73 73 73 73 72 71 69
92 90 91 91 92 91 87 83 83 82 80 79 79 81 81 81 80 80 79 78 79 75 75 76 76 75 77 78 75 74 73 72 72 73 73 73 73 72 72 72 72 71 68
93 92 92 92 91 83 86 82 83 82 79 78 75 75 81 81 80 80 79 80 80 80 79 78 78 78 77 77 76 74 73 72 71 71 71 71 74 71 72 73 71 70 70
92 93 91 89 83 81 83 84 82 81 82 80 75 78 81 80 79 80 79 79 80 80 79 78 77 77 77 77 76 75 73 72 72 70 70 69 71 70 71 71 70 69 68
89 89 88 84 78 80 81 82 83 83 82 82 83 80 80 80 80 80 80 79 80 79 78 78 78 78 77 76 76 75 74 73 71 69 68 68 67 67 71 70 68 66 64
88 86 85 83 78 79 81 82 84 82 82 80 80 81 81 81 80 80 80 80 80 79 79 78 79 79 75 74 69 75 74 72 71 70 69 67 67 66 65 70 68 65 63
88 86 84 84 77 79 81 83 83 82 83 81 80 81 79 77 78 79 78 79 78 78 79 79 78 74 76 64 65 70 73 73 72 70 69 69 69 66 65 65 65 67 65
88 87 85 84 78 80 81 82 81 83 80 81 82 79 78 78 77 78 77 75 77 77 77 75 73 71 69 65 65 65 74 72 72 70 69 72 71 69 69 66 66 64 64
87 87 87 86 82 84 82 83 82 82 81 78 78 76 76 76 73 76 75 74 76 75 75 75 73 71 67 63 61 63 74 72 72 70 69 68 66 60 67 65 63 62 62
84 84 87 87 83 84 81 81 80 80 78 76 76 71 73 74 74 74 73 75 75 74 74 75 73 70 67 60 60 60 73 71 70 68 65 68 66 57 58 66 62 61 61
81 83 85 82 79 80 81 80 78 77 76 76 72 70 70 69 71 72 74 73 73 73 74 74 73 68 69 57 57 60 69 70 69 67 64 58 60 56 56 68 65 62 61
77 80 81 78 79 81 81 79 78 76 77 75 69 69 68 67 69 69 70 72 73 72 71 71 70 72 69 63 57 57 71 70 68 68 65 62 56 56 56 56 63 61 61
78 77 73 71 74 78 78 78 76 74 73 72 70 68 68 68 69 70 69 69 68 69 69 68 69 71 68 60 54 57 59 66 69 66 66 60 53 54 56 60 55 57 57
74 76 74 73 73 74 75 73 72 75 74 71 70 68 68 68 67 68 71 67 67 66 66 64 67 69 69 65 52 54 56 59 65 66 60 54 52 52 54 59 58 56 63
76 78 76 72 70 71 69 70 70 71 70 69 67 67 67 65 66 66 67 67 65 64 63 63 64 69 69 67 65 64 63 57 64 58 60 59 60 58 59 62 62 64 64
77 79 76 74 71 72 70 69 69 68 66 66 65 66 64 63 60 55 53 60 61 60 62 62 64 66 69 69 62 64 67 66 64 62 61 60 61 63 64 64 66 65 64
79 77 76 76 74 73 72 71 70 69 68 67 67 67 65 63 59 55 54 48 46 45 46 48 58 58 51 46 48 48 49 50 53 62 61 61 64 65 67 66 65 64 63